Other Public Products
Issued by NWS Charleston, SC

Current Version | Previous Version | Graphics & Text | Print | Product List | Glossary On
Versions: 1 2 3 4 5 6 7 8 9 10 11 12 13 14 15 16 17 18 19 20 21 22 23 24 25 26 27 28 29 30 31 32 33 34 35 36 37 38 39 40 41 42 43 44 45 46 47 48 49 50
665
FPUS82 KCHS 220527
OPUCHS

TEST...KCHS/KSAV Gateway Observations...TEST
National Weather Service Charleston SC
1200 AM EST SUN JAN 22 2017

NOTE: "fair" indicates few or no clouds below 12,000 feet with no
significant weather and/or obstructions to visibility.

SCZ050-WAZ558-NCZ071-TXZ119-213-PAZ071-DCZ001-FLZ074-172-MI076-
NYZ176-178-MAZ016-IL014-TNZ027-NJZ106-GAZ044-MD014-220600-
...Gateway Observations for Charleston International...

CITY           SKY/WX    TMP DP  RH WIND       PRES   REMARKS
Chas Airport   PTCLDY    59  57  93 SW7       29.71F
Seattle        LGT RAIN  44  43  96 SE6       29.58S
Charlotte      DRIZZLE   55  54  96 N6        29.66F
Dallas DFW     MOCLDY    58  44  60 SW14      29.41F
Dallas Love    MOCLDY    58  45  62 S6        29.44F
Philladelphia  CLOUDY    46  45  96 NE3       29.78F FOG
Wash National  CLOUDY    47  47 100 NE6       29.76F FOG
Baltimore      FOG       45  45 100 NE5       29.77F VSB 3/4
Miami          PTCLDY    75  67  76 S9        29.86F
Detroit        FOG       40  40 100 CALM      29.63S VSB 3/4
Newark         CLOUDY    44  44 100 NW6       29.78F FOG
Laguardia      FOG       46  45  96 S5        29.78F VSB 1
J F K          FOG       44  44 100 SW5       29.79F VSB 1/8
Boston Logan   PTCLDY    43  40  89 E3        29.75S
Ft. Lauderdale PTCLDY    72  66  81 S7        29.85F
Chicago O`Hare FOG       41  41 100 NW7       29.59S VSB 1/8
Chicago Midway MOCLDY    43  40  89 CALM      29.59S
Houston Bush   CLOUDY    62  52  69 NW14G22   29.57R
Houston Hobby  CLOUDY    68  57  68 NW10      29.55S
Nashville      MOCLDY    55  49  80 E5        29.59F
Atlanta        CLOUDY    57  56  96 S5        29.67R

$$

GAZ044-118-TXZ119-213-NCZ071-DCZ001-MDZ014-506-PAZ021-071-NJZ106-
NYZ176-178-MAZ106-OHZ011-021-055-MIZ076-KYZ091-ILZ014-INZ047-
MNZ060-220600-
...Gateway Observations for Savannah International...

CITY           SKY/WX    TMP DP  RH WIND       PRES   REMARKS
Savannah Arpt  PTCLDY    60  58  92 S3        29.72S
Atlanta        CLOUDY    57  56  96 S5        29.67R
Charlotte      DRIZZLE   55  54  96 N6        29.66F
Dallas DFW     MOCLDY    58  44  60 SW14      29.41F
Houston Bush   CLOUDY    62  52  69 NW14G22   29.57R
Wash National  CLOUDY    47  47 100 NE6       29.76F FOG
Wash Dulles    FOG       48  47  96 CALM      29.76F VSB 1/8
Baltimore      FOG       45  45 100 NE5       29.77F VSB 3/4
Philadelphia   CLOUDY    46  45  96 NE3       29.78F FOG
Newark         CLOUDY    44  44 100 NW6       29.78F FOG
Laguardia      FOG       46  45  96 S5        29.78F VSB 1
J F K          FOG       44  44 100 SW5       29.79F VSB 1/8
Boston         PTCLDY    43  40  89 E3        29.75S
Pittsburg      LGT RAIN  50  49  96 CALM      29.69F
Akron          LGT RAIN  53  50  89 NW9       29.70R FOG
Cleveland      CLOUDY    58  50  75 S12       29.68S
Cincinnati     MOCLDY    53  52  96 S5        29.66R
Columbus         N/A     52  51  99 E5        29.67F
Detroit        FOG       40  40 100 CALM      29.63S VSB 3/4
Chicago O`Hare FOG       41  41 100 NW7       29.59S VSB 1/8
Minneapolis    DRZL/FOG  36  35  96 CALM      29.54R VSB 1/4
Indianapolis   CLOUDY    54  49  83 SE7       29.61S

$$




USA.gov is the U.S. government's official web portal to all federal, state and local government web resources and services.